EW5649 Weather Reports


Display with metric or nautical units.
time (UTC)temp
F
wind
direction
speed
MPH
gust
MPH
rain 1hr
in
rain 24hr
in
rain mn
in
humidity
%
barometer
mb
20260505022516 71 45 1.0 2.0 0.00 0.00 0.00 62 1008.7
20260505022056 72 45 1.0 1.0 0.00 0.00 0.00 62 1008.7
20260505021517 72 45 1.0 2.0 0.00 0.00 0.00 61 1008.7
20260505021017 72 0.0 1.0 0.00 0.00 0.00 60 1008.7
20260505020516 73 45 1.0 2.0 0.00 0.00 0.00 59 1008.7
20260505020057 73 45 1.0 1.0 0.00 0.00 0.00 56 1008.7
20260505015556 74 0.0 2.0 0.00 0.00 0.00 56 1008.7
20260505015016 74 45 1.0 1.0 0.00 0.00 0.00 57 1008.7
20260505014516 75 45 1.0 2.0 0.00 0.00 0.00 56 1008.7
20260505014017 75 45 1.0 2.0 0.00 0.00 0.00 54 1008.7
20260505013516 75 45 1.0 2.0 0.00 0.00 0.00 52 1008.7
20260505013017 76 45 1.0 2.0 0.00 0.00 0.00 54 1008.8
20260505012517 76 0.0 1.0 0.00 0.00 0.00 52 1008.8
20260505012017 77 0.0 2.0 0.00 0.00 0.00 49 1008.8
20260505011557 77 0.0 2.0 0.00 0.00 0.00 45 1008.9
20260505011016 78 0.0 2.0 0.00 0.00 0.00 49 1008.9
20260505010517 78 315 1.0 2.0 0.00 0.00 0.00 45 1008.9
20260505010016 79 0.0 2.0 0.00 0.00 0.00 46 1009.0
20260505005517 80 0.0 1.0 0.00 0.00 0.00 48 1009.0
20260505005016 80 0.0 3.0 0.00 0.00 0.00 45 1009.0
20260505004516 81 0.0 4.0 0.00 0.00 0.00 41 1009.0
20260505004016 81 203 1.0 3.0 0.00 0.00 0.00 44 1008.9
20260505003556 82 0.0 2.0 0.00 0.00 0.00 42 1009.0
20260505003016 82 0.0 2.0 0.00 0.00 0.00 42 1008.9
20260505002516 82 0.0 2.0 0.00 0.00 0.00 42 1008.9
20260505002016 82 225 1.0 3.0 0.00 0.00 0.00 41 1008.9
20260505001556 82 225 1.0 3.0 0.00 0.00 0.00 43 1008.9
20260505001017 82 113 1.0 3.0 0.00 0.00 0.00 42 1008.9
20260505000516 82 270 1.0 3.0 0.00 0.00 0.00 38 1008.9
20260505000016 82 135 1.0 3.0 0.00 0.00 0.00 42 1009.0
20260504235516 82 225 1.0 5.0 0.00 0.00 0.00 38 1008.9
20260504235016 83 225 1.0 4.0 0.00 0.00 0.00 38 1009.0
20260504234516 83 135 1.0 4.0 0.00 0.00 0.00 36 1009.1
20260504234016 83 248 1.0 5.0 0.00 0.00 0.00 40 1009.0
20260504233556 83 203 1.0 3.0 0.00 0.00 0.00 37 1009.0
20260504233016 83 203 1.0 4.0 0.00 0.00 0.00 36 1009.0
20260504232516 83 90 1.0 4.0 0.00 0.00 0.00 38 1009.0
20260504232016 82 113 1.0 3.0 0.00 0.00 0.00 38 1009.2
20260504231516 83 45 1.0 2.0 0.00 0.00 0.00 38 1009.1
20260504231016 82 135 1.0 4.0 0.00 0.00 0.00 40 1009.2
20260504230516 83 225 1.0 3.0 0.00 0.00 0.00 40 1009.3
20260504230015 82 113 1.0 3.0 0.00 0.00 0.00 40 1009.3
20260504225516 82 203 1.0 4.0 0.00 0.00 0.00 45 1009.4
20260504225016 82 225 1.0 3.0 0.00 0.00 0.00 44 1009.5
20260504224516 82 45 1.0 4.0 0.00 0.00 0.00 40 1009.5
20260504224055 82 45 1.0 4.0 0.00 0.00 0.00 41 1009.6
20260504223516 82 135 1.0 3.0 0.00 0.00 0.00 46 1009.6
20260504223016 81 135 1.0 3.0 0.00 0.00 0.00 45 1009.6
20260504222516 81 225 1.0 3.0 0.00 0.00 0.00 44 1009.7
20260504222016 81 225 1.0 5.0 0.00 0.00 0.00 41 1009.8
20260504221516 81 113 1.0 2.0 0.00 0.00 0.00 43 1009.8
20260504221056 81 225 2.0 5.0 0.00 0.00 0.00 44 1009.9
20260504220515 81 45 1.0 2.0 0.00 0.00 0.00 45 1010.0
20260504220016 81 113 1.0 3.0 0.00 0.00 0.00 47 1010.0
20260504215516 81 135 1.0 4.0 0.00 0.00 0.00 43 1010.0
20260504215015 80 225 2.0 5.0 0.00 0.00 0.00 44 1010.1
20260504214515 80 225 1.0 4.0 0.00 0.00 0.00 45 1010.2
20260504214016 80 113 1.0 4.0 0.00 0.00 0.00 52 1010.2
20260504213515 80 225 1.0 5.0 0.00 0.00 0.00 45 1010.3
20260504213016 80 270 1.0 4.0 0.00 0.00 0.00 43 1010.3
20260504212556 81 113 2.0 4.0 0.00 0.00 0.00 46 1010.4
20260504212015 80 225 1.0 3.0 0.00 0.00 0.00 48 1010.3
20260504211556 80 135 1.0 4.0 0.00 0.00 0.00 52 1010.3
20260504211015 79 113 1.0 2.0 0.00 0.00 0.00 48 1010.3
20260504210555 79 90 1.0 3.0 0.00 0.00 0.00 44 1010.3
20260504210015 78 225 1.0 3.0 0.00 0.00 0.00 49 1010.3
20260504205516 78 225 1.0 5.0 0.00 0.00 0.00 45 1010.3
20260504205015 78 248 1.0 5.0 0.00 0.00 0.00 47 1010.4
20260504204556 77 225 2.0 4.0 0.00 0.00 0.00 50 1010.4
20260504204055 77 113 1.0 3.0 0.00 0.00 0.00 48 1010.4
20260504203515 77 225 1.0 5.0 0.00 0.00 0.00 48 1010.3
20260504203016 77 225 1.0 5.0 0.00 0.00 0.00 46 1010.3
20260504202555 78 113 1.0 4.0 0.00 0.00 0.00 47 1010.3
20260504202015 78 113 1.0 5.0 0.00 0.00 0.00 51 1010.3
20260504201556 78 113 1.0 4.0 0.00 0.00 0.00 49 1010.2
20260504201015 77 113 1.0 3.0 0.00 0.00 0.00 52 1010.3
20260504200556 77 113 1.0 5.0 0.00 0.00 0.00 49 1010.3
20260504200015 77 113 1.0 3.0 0.00 0.00 0.00 52 1010.3
20260504195516 77 225 2.0 6.0 0.00 0.00 0.00 52 1010.3
20260504195015 78 225 1.0 3.0 0.00 0.00 0.00 50 1010.4
20260504194555 78 113 1.0 5.0 0.00 0.00 0.00 49 1010.3
20260504194056 78 225 1.0 3.0 0.00 0.00 0.00 49 1010.3
20260504193555 79 113 1.0 3.0 0.00 0.00 0.00 50 1010.4
20260504193016 79 113 1.0 4.0 0.00 0.00 0.00 52 1010.5
20260504192515 78 135 1.0 2.0 0.00 0.00 0.00 58 1010.6
20260504192015 77 113 1.0 4.0 0.00 0.00 0.00 52 1010.6
20260504191515 77 135 1.0 4.0 0.00 0.00 0.00 53 1010.7
20260504191015 78 135 2.0 5.0 0.00 0.00 0.00 47 1010.7
20260504190518 78 135 1.0 5.0 0.00 0.00 0.00 48 1010.8
20260504190018 77 113 1.0 4.0 0.00 0.00 0.00 49 1010.8
20260504185517 77 135 1.0 3.0 0.00 0.00 0.00 46 1010.8
20260504185015 77 180 1.0 5.0 0.00 0.00 0.00 49 1010.8
20260504184517 77 45 1.0 2.0 0.00 0.00 0.00 50 1010.7
20260504184017 76 113 1.0 3.0 0.00 0.00 0.00 49 1010.7
20260504183518 76 0.0 2.0 0.00 0.00 0.00 44 1010.7
20260504183057 76 113 1.0 3.0 0.00 0.00 0.00 51 1010.7
20260504182557 76 113 1.0 3.0 0.00 0.00 0.00 51 1010.7
20260504182057 75 113 1.0 2.0 0.00 0.00 0.00 54 1010.8
20260504181517 75 113 1.0 3.0 0.00 0.00 0.00 53 1010.8
20260504181017 75 203 1.0 2.0 0.00 0.00 0.00 58 1010.8
20260504180557 74 135 1.0 2.0 0.00 0.00 0.00 54 1010.8
20260504180018 74 113 1.0 4.0 0.00 0.00 0.00 59 1010.8
20260504175517 73 225 1.0 4.0 0.00 0.00 0.00 57 1010.9
20260504175057 74 225 1.0 4.0 0.00 0.00 0.00 52 1010.8
20260504174517 75 90 1.0 3.0 0.00 0.00 0.00 53 1010.7
20260504174017 74 113 1.0 3.0 0.00 0.00 0.00 53 1010.7
20260504173517 74 113 1.0 3.0 0.00 0.00 0.00 57 1010.8
20260504173017 74 90 1.0 3.0 0.00 0.00 0.00 55 1010.8
20260504172557 73 180 1.0 5.0 0.00 0.00 0.00 55 1010.7
20260504172017 73 113 1.0 2.0 0.00 0.00 0.00 58 1010.7
20260504171517 72 113 1.0 2.0 0.00 0.00 0.00 65 1010.8
20260504171017 72 113 1.0 2.0 0.00 0.00 0.00 67 1010.7
20260504170517 71 90 1.0 2.0 0.00 0.00 0.00 60 1010.7
20260504151017 57 0.0 2.0 0.00 0.00 0.00 83 1010.0
20260504150517 57 315 1.0 2.0 0.00 0.00 0.00 84 1009.9
20260504141056 55 0.0 1.0 0.00 0.00 0.00 84 1009.7
20260504140517 55 0.0 1.0 0.00 0.00 0.00 84 1009.7
20260504130516 55 0 1.0 2.0 0.00 0.00 0.00 77 1009.5
20260504110516 56 45 1.0 2.0 0.00 0.00 0.00 76 1009.6
20260504100516 62 45 1.0 2.0 0.00 0.00 0.00 63 1009.2
20260504081516 62 315 1.0 3.0 0.00 0.00 0.00 63 1009.3
20260504081016 62 45 1.0 2.0 0.00 0.00 0.00 63 1009.3
20260504080516 62 45 1.0 2.0 0.00 0.00 0.00 59 1009.2
20260504050517 68 45 1.0 2.0 0.00 0.00 0.00 51 1009.2
20260504050017 68 45 1.0 2.0 0.00 0.00 0.00 48 1009.2
20260504045517 68 45 1.0 3.0 0.00 0.00 0.00 49 1009.1
20260504045017 68 45 1.0 3.0 0.00 0.00 0.00 49 1009.1
20260504044517 68 45 1.0 2.0 0.00 0.00 0.00 49 1009.0
20260504044017 68 45 1.0 2.0 0.00 0.00 0.00 49 1009.1
20260504043517 68 45 1.0 2.0 0.00 0.00 0.00 51 1009.2
20260504043017 68 45 1.0 2.0 0.00 0.00 0.00 50 1009.2
20260504042517 68 45 1.0 2.0 0.00 0.00 0.00 52 1009.1
20260504042016 68 45 1.0 2.0 0.00 0.00 0.00 53 1009.1
20260504041557 68 45 1.0 1.0 0.00 0.00 0.00 54 1009.1
20260504041056 68 45 1.0 1.0 0.00 0.00 0.00 50 1009.1
20260504040517 68 45 1.0 1.0 0.00 0.00 0.00 53 1009.1
20260504040017 68 45 1.0 1.0 0.00 0.00 0.00 51 1009.0
20260504035517 68 45 1.0 2.0 0.00 0.00 0.00 51 1009.0
20260504035017 68 45 1.0 1.0 0.00 0.00 0.00 52 1008.9
20260504034517 69 45 1.0 1.0 0.00 0.00 0.00 54 1008.9
20260504034017 69 45 1.0 1.0 0.00 0.00 0.00 52 1008.8
20260504033516 69 0.0 1.0 0.00 0.00 0.00 55 1008.8
20260504033017 69 0.0 1.0 0.00 0.00 0.00 54 1008.8
20260504032557 69 0.0 1.0 0.00 0.00 0.00 53 1008.8
20260504032016 70 45 1.0 1.0 0.00 0.00 0.00 57 1008.8
20260504031516 70 45 1.0 1.0 0.00 0.00 0.00 56 1008.7
20260504031057 70 45 1.0 1.0 0.00 0.00 0.00 56 1008.7
20260504030516 70 45 1.0 1.0 0.00 0.00 0.00 54 1008.7
20260504030017 71 45 1.0 1.0 0.00 0.00 0.00 55 1008.7
20260504025557 71 45 1.0 1.0 0.00 0.00 0.00 53 1008.8
20260504025016 71 0.0 1.0 0.00 0.00 0.00 55 1008.7
20260504024517 71 45 1.0 1.0 0.00 0.00 0.00 52 1008.8
20260504024016 71 45 1.0 2.0 0.00 0.00 0.00 54 1008.9
20260504023557 72 45 1.0 1.0 0.00 0.00 0.00 53 1008.9
20260504023016 72 45 1.0 1.0 0.00 0.00 0.00 54 1008.9